SCP
0 0 0 0 0 0 0 0 0 0 0 0 0 0 0 0 0 0 0 0 0 0 0 0 0 0 0 0 0 0 0 0 0 0 0 0 0 0 0 0 0 0 0 0 0 0 0
0 0 0 0 0 0 0 0 0 0 0 0 0 0 0 0 0 0 0 0 0 0 0 0 0 0 0 0 0 0 0 0 0 0 0 0 0 0 0 0 0 0 0 0 0 0 0
0 0 0 0 0 0 0 0 0 0 0 0 0 0 0 0 0 0 0 0 0 0 0 0 0 0 0 0 0 0 0 0 0 0 0 0 0 0 0 0 0 0 0 0 0 0 0
0 0 0 0 0 0 0 0 0 0 0 0 0 0 0 0 0 0 0 0 0 0 0 0 0 0 0 0 0 0 0 0 0 0 0 0 0 0 0 0 0 0 0 0 0 0 0
0 0 0 0 0 0 0 0 0 0 0 0 0 0 0 0 0 0 0 0 0 0 0 0 0 0 0 0 0 0 0 0 0 0 0 0 0 0 0 0 0 0 0 0 0 0 0
0 0 0 0 0 0 0 0 0 0 0 0 0 0 0 0 0 0 0 0 0 0 0 0 0 0 0 0 0 0 0 0 0 0 0 0 0 0 0 0 0 0 0 0 0 0 0
0 0 0 0 0 0 0 0 0 0 0 0 0 0 0 0 0 0 0 0 0 0 0 0 0 0 0 0 0 0 0 0 0 0 0 0 0 0 0 0 0 0 0 0 0 0 0
0 0 0 0 0 0 0 0 0 0 0 0 0 0 0 0 0 0 0 0 0 0 0 0 0 0 0 0 0 0 0 0 0 0 0 0 0 0 0 0 0 0 0 0 0 0 0
0 0 0 0 0 0 0 0 0 0 0 0 0 0 0 0 0 0 0 0 0 0 0 0 0 0 0 0 0 0 0 0 0 0 0 0 0 0 0 0 0 0 0 0 0 0 0
0 0 0 0 0 0 0 0 0 0 0 0 0 0 0 0 0 0 0 0 0 0 0 0 0 0 0 0 0 0 0 0 0 0 0 0 0 0 0 0 0 0 0 0 0 0 0
0 0 0 0 0 0 0 0 0 0 0 0 0 0 0 0 0 0 0 0 0 0 0 0 0 0 0 0 0 0 0 0 0 0 0 0 0 0 0 0 0 0 0 0 0 0 0
0 0 0 0 0 0 0 0 0 0 0 0 0 0 0 0 0 0 0 0 0 0 0 0 0 0 0 0 0 0 0 0 0 0 0 0 0 0 -0 0 0 0 0 0 0 0 0
0 0 0 0 0 0 0 0 0 0 0 0 0 0 0 0 0 0 0 0 0 0 0 0 0 0 0 0 0 0 0 0 0 0 0 0 0 0 0 0 0 0 0 0 0 0 0
0 0 0 0 0 0 0 0 0 0 0 0 0 0 0 0 0 0 0 0 0 0 0 0 0 0 0 0 0 0 0 0 0 0 0 0 0 0 0 0 0 0 0 0 0 0 0
0 0 0 0 0 0 0 0 0 0 0 0 0 0 0 0 0 0 0 0 0 0 0 0 0 0 0 0 0 0 0 0 0 0 0 0 0 0 0 0 0 0 0 0 0 0 0
0 0 0 0 0 0 0 0 0 0 0 0 0 0 0 0 0 0 0 0 0 0 0 0 0 0 0 0 0 0 0 0 0 0 0 0 0 0 0 0 0 0 0 0 0 0 0
0 0 0 0 0 0 0 0 0 0 0 0 0 0 0 0 0 0 0 0 0 0 0 0 0 0 0 0 0 0 0 0 0 0 0 0 0 0 0 0 0 0 0 0 0 0 0
0 0 0 0 0 0 0 0 0 0 0 0 0 0 0 0 0 0 0 0 0 0 0 0 0 0 0 0 0 0 0 0 0 0 0 0 0 0 0 0 0 0 0 0 0 0 0
0 0 0 0 0 0 0 0 0 0 0 0 0 0 0 0 0 0 0 0 0 0 0 0 0 0 0 0 0 0 0 0 0 0 0 0 0 0 0 0 0 0 0 0 0 0 0
-0 0 0 0 0 0 0 0 0 0 0 0 0 0 0 0 0 0 0 0 0 0 0 0 0 0 0 0 0 0 0 0 0 0 0 0 0 0 0 0 0 0 -0 0 0 -0 -0
0 0 0 0 0 0 0 0 0 0 0 0 0 0 0 0 0 0 0 0 0 0 0 0 0 0 0 0 0 0 0 0 0 0 0 0 0 0 0 0 0 0 0 -0 -0 0 -0
0 0 0 0 0 0 0 0 0 0 0 0 0 0 0 0 0 0 0 0 0 0 0 0 0 0 0 0 0 0 0 0 0 0 0 0 0 0 0 0 0 0 0 -0 -0 -0 -0
0 0 0 0 0 0 0 0 0 0 0 0 0 0 0 0 0 0 0 0 0 0 0 0 0 0 0 0 0 0 0 0 0 0 0 0 0 0 0 0 0 0 -0 -0 -0 -0 -0
0 0 0 0 0 0 0 0 0 0 0 0 0 0 0 0 0 0 0 0 0 0 0 0 0 0 0 0 0 0 0 0 0 0 0 0 0 0 0 0 0 0 -0 0 0 -0 0
0 0 0 -0 0 0 0 0 0 0 0 0 0 0 0 0 0 0 0 0 0 0 0 0 0 0 0 0 0 0 0 0 0 0 0 0 0 0 0 0 0 0 0 -0 -0 -0 -0
0 0 0 0 0 0 0 0 0 0 0 0 0 0 0 0 0 0 0 0 0 0 0 0 0 0 0 0 0 0 0 0 0 0 0 0 0 0 0 0 -0 0 0 0 -0 -0 -0
0 0 0 0 0 0 0 0 0 0 0 0 0 0 0 0 0 0 0 0 0 0 0 0 0 0 0 0 0 0 0 0 0 0 0 0 0 0 0 0 0 0 0 0 -0 -0 0
0 0 0 0 0 0 0 0 0 0 0 0 0 0 0 0 0 0 0 0 0 0 0 0 0 0 0 0 0 0 0 0 0 0 0 0 0 0 0 0 0 0 -0 -0 -0 -0 -0
0 0 0 0 0 0 0 0 0 0 0 0 0 0 0 0 0 0 0 0 0 0 0 0 0 0 0 0 0 0 0 0 0 0 0 0 0 0 0 0 0 0 -0 -0 -0 -0 -0
Wind_Speed_500mb
69 68 61 57 53 45 43 41 40 39 39 38 36 30 30 28 27 27 26 23 21 26 28 29 31 28 19 8 8 10 11 18 20 14 11 12 14 7 4 9 18 9 9 33 32 48 46
80 78 71 66 63 55 47 48 45 44 42 40 39 33 33 34 27 29 29 27 24 24 29 29 30 26 14 4 14 9 13 13 5 7 8 8 6 7 8 6 1 18 29 43 41 51 38
88 87 82 73 71 62 54 53 50 48 46 43 42 37 36 33 35 29 30 29 26 25 26 28 29 23 15 14 13 12 21 9 9 16 19 5 8 4 7 10 10 21 14 13 7 15 14
96 90 90 87 82 67 63 62 55 52 49 47 44 41 39 35 36 33 28 29 25 22 22 22 22 16 7 5 5 3 5 5 9 11 10 7 7 5 1 11 18 13 8 12 16 23 17
103 101 95 91 94 81 70 63 62 59 53 51 49 42 41 36 36 35 32 28 29 28 22 22 18 9 7 9 7 3 7 18 19 8 13 2 6 3 8 6 10 13 11 29 20 33 17
111 107 100 96 100 95 82 79 73 67 61 58 55 49 38 35 30 36 35 30 29 21 23 16 19 10 9 8 7 4 10 12 16 5 5 13 8 7 8 11 4 12 14 12 29 15 19
115 128 114 105 102 105 101 88 84 78 68 63 59 49 42 35 31 38 35 23 12 6 23 14 7 7 5 5 6 7 13 3 14 18 6 9 13 5 4 3 6 10 12 29 36 22 31
100 127 128 121 103 109 108 99 96 85 75 69 65 57 56 55 39 39 27 11 10 6 9 32 24 25 16 7 7 6 7 7 8 6 6 11 8 5 5 9 8 11 24 33 43 17 28
88 105 140 131 119 117 119 111 104 93 83 73 71 65 57 46 37 29 14 9 8 10 0 10 27 15 15 13 6 8 5 8 6 3 3 9 6 4 10 10 14 8 14 25 26 52 49
110 105 130 151 135 136 121 120 108 100 90 79 69 61 59 42 35 32 18 10 2 6 6 7 12 13 17 14 3 6 6 6 3 3 6 7 2 11 8 4 14 20 12 22 38 33 26
126 131 128 158 152 146 128 127 117 107 93 74 65 62 56 49 28 37 22 14 11 10 5 14 11 18 18 12 21 9 6 6 5 2 9 1 8 12 2 3 26 18 19 26 45 39 32
141 147 134 159 153 151 134 131 120 108 86 68 70 69 55 52 35 36 26 22 23 5 12 12 13 14 11 10 9 10 8 14 9 8 7 8 10 5 4 8 8 16 23 45 17 2 8
135 133 136 155 152 152 143 134 122 102 77 76 71 61 59 53 48 39 31 34 8 10 8 11 10 10 10 10 8 5 5 7 5 7 8 8 5 8 6 20 6 17 24 10 10 6 19
96 111 138 156 156 149 140 129 101 80 78 80 72 65 56 49 47 40 45 7 10 17 14 5 7 11 8 10 6 5 6 4 4 9 3 5 10 6 11 1 9 9 6 4 13 17 37
68 127 141 155 162 149 130 109 92 84 86 65 68 61 57 48 46 44 29 4 13 6 10 14 9 7 4 6 10 7 4 8 5 6 7 4 6 4 8 5 7 6 2 16 14 27 17
84 121 141 148 145 130 115 100 93 94 85 79 65 58 51 44 42 46 6 9 4 3 7 7 10 10 8 8 6 6 4 6 2 5 9 2 6 2 8 5 8 7 9 11 8 11 18
93 134 137 132 125 110 96 96 81 85 79 77 67 27 45 38 44 26 8 10 9 5 10 6 6 8 8 10 9 5 9 3 4 7 5 6 6 9 9 5 12 8 6 7 9 9 9
83 93 111 105 93 85 81 75 81 83 82 77 40 7 48 45 11 9 7 10 17 8 7 6 6 9 9 9 8 7 9 6 6 5 5 3 6 3 14 19 9 7 13 17 8 15 21
63 64 64 72 71 71 72 74 85 86 90 54 20 17 30 43 8 5 7 7 9 9 7 6 5 5 6 9 9 7 9 15 17 6 7 4 2 6 8 12 9 6 24 24 28 17 16
53 54 56 62 62 64 73 71 78 82 70 42 19 7 11 17 4 11 10 8 9 11 6 13 10 12 9 6 6 7 5 5 6 6 16 9 6 13 11 18 9 11 31 31 22 6 21
44 46 50 52 58 54 56 71 76 80 59 33 12 8 17 8 7 6 6 11 20 9 5 10 6 9 10 6 6 6 6 10 6 5 7 6 6 11 13 24 28 29 29 22 20 14 9
43 41 52 54 59 51 48 58 67 74 54 13 15 14 13 11 29 11 2 5 12 9 7 6 11 13 12 9 6 6 8 4 8 5 6 1 6 2 8 21 23 18 9 20 13 11 25
46 47 48 48 42 40 44 53 64 58 30 9 20 41 32 4 8 9 7 9 11 15 20 19 28 13 13 13 15 12 20 21 17 12 8 5 5 2 8 11 20 8 7 17 18 15 18
43 46 46 42 40 39 44 52 59 45 26 37 44 42 12 3 6 7 11 14 18 9 13 13 25 10 13 11 2 6 14 29 27 23 25 10 7 5 7 9 4 6 4 13 24 5 24
57 51 52 48 42 38 36 51 54 33 32 40 47 23 13 6 10 9 22 19 31 35 13 14 9 17 17 10 7 7 7 4 4 9 16 19 7 3 4 4 4 4 2 11 11 6 26
56 55 56 45 44 39 42 49 57 41 37 37 33 26 31 18 5 3 10 23 10 8 4 8 15 25 13 7 6 4 4 3 4 3 7 9 2 5 2 4 7 7 18 30 13 11 33
46 47 51 46 42 44 43 46 56 41 34 32 32 30 24 19 10 7 8 10 14 9 8 8 10 7 10 4 4 4 6 4 4 2 2 4 3 2 3 7 9 5 35 32 6 10 41
54 49 51 43 43 45 42 40 48 45 34 26 30 27 25 15 16 18 16 17 18 17 9 10 9 5 6 6 5 5 3 1 2 2 3 5 1 2 3 2 9 16 7 7 11 25 30
56 59 54 50 47 43 40 37 39 44 31 26 26 21 27 17 19 20 20 21 21 19 29 8 8 7 7 7 2 4 2 3 6 4 7 3 9 6 10 8 2 4 1 12 17 20 24
Wind_Direction_500mb
260 258 259 260 259 257 264 264 268 266 265 267 271 266 262 260 267 272 275 282 292 300 305 308 305 307 309 268 256 270 313 324 315 305 335 12 42 20 348 303 328 207 324 321 312 310 305
256 260 255 256 257 255 258 265 262 262 259 262 262 257 259 263 253 264 271 280 289 293 299 302 300 298 292 256 229 282 325 333 342 343 311 344 341 343 284 284 18 317 302 298 303 298 299
257 256 257 254 255 255 253 259 258 258 256 255 257 257 254 256 260 255 266 278 286 293 298 302 306 297 269 252 261 293 301 308 7 347 320 89 347 336 318 326 322 281 317 349 309 8 307
256 255 252 254 249 247 253 252 252 255 254 252 250 249 245 250 254 258 258 270 279 286 298 303 306 306 257 227 261 291 15 251 324 358 323 310 279 336 349 322 339 347 28 6 345 340 10
255 252 253 251 249 246 244 249 252 252 249 247 249 243 247 242 248 255 256 258 271 279 289 292 287 301 276 177 181 3 23 359 344 358 44 63 169 70 43 41 5 13 321 322 330 345 348
255 253 247 248 248 248 242 246 245 246 243 240 239 239 236 239 250 257 255 262 269 270 259 272 242 289 228 217 232 76 31 14 50 107 120 53 62 65 34 51 323 298 306 282 296 305 312
254 255 251 244 248 242 241 240 246 244 244 236 233 230 226 228 251 258 265 274 248 258 227 211 238 245 222 239 219 97 32 209 55 56 56 14 67 61 321 7 235 267 284 300 294 301 298
247 248 251 248 244 247 240 239 242 240 240 237 224 225 225 230 240 252 255 226 196 212 302 230 236 250 244 205 181 181 47 98 67 72 29 23 125 60 96 24 9 325 301 299 289 317 310
256 248 246 244 251 243 241 239 236 237 235 232 222 230 230 217 235 234 235 215 225 229 248 256 212 211 196 194 200 176 95 134 124 95 81 145 70 24 51 331 317 301 275 299 294 312 300
266 262 241 242 244 240 240 236 235 232 231 221 230 225 202 216 220 213 199 173 192 144 41 223 203 222 189 192 241 178 158 116 98 161 131 114 11 16 359 311 348 328 268 303 301 309 299
263 266 249 235 235 234 234 232 230 225 222 222 218 200 198 204 202 189 182 167 133 131 268 147 169 166 170 174 139 116 99 115 116 147 90 307 328 314 32 34 347 274 309 302 297 279 297
260 261 238 224 225 224 225 229 222 216 212 213 200 189 196 194 192 184 168 153 127 89 238 192 152 177 148 180 169 115 76 72 95 93 40 199 278 159 189 328 298 307 341 314 298 225 251
260 243 218 214 222 216 211 211 210 205 201 194 191 191 192 191 192 177 164 132 99 207 135 169 181 162 145 153 123 90 80 41 89 48 20 341 333 340 34 346 335 21 349 319 327 318 283
241 217 205 206 205 199 193 198 197 197 184 184 187 187 188 188 181 170 152 89 205 194 183 122 119 114 161 144 69 106 104 105 92 94 94 52 350 354 336 287 280 340 91 321 301 303 297
215 199 201 197 190 186 188 187 183 182 174 184 184 178 182 179 172 167 147 132 198 234 137 142 95 123 153 54 116 104 89 164 184 126 120 34 275 266 327 327 108 276 321 275 264 260 267
209 194 180 174 174 177 179 176 177 175 173 174 175 170 170 174 175 166 114 235 142 212 118 116 152 152 139 142 83 82 153 243 98 106 130 129 310 258 300 346 56 145 287 320 269 300 302
151 164 159 159 161 162 166 167 164 168 172 163 165 143 162 166 163 167 176 218 124 63 130 122 140 109 129 131 122 155 194 48 113 144 147 123 128 301 6 351 306 346 344 293 268 238 286
109 119 134 144 148 149 154 158 161 164 160 155 149 111 160 156 135 192 149 201 117 164 115 116 100 111 135 135 126 143 167 140 113 129 100 189 161 298 295 286 255 177 323 302 286 281 258
130 129 129 128 134 143 152 155 164 162 160 144 104 108 156 164 152 164 242 119 128 161 160 138 114 85 106 141 110 134 145 116 98 104 128 161 326 340 342 3 356 323 306 308 302 267 301
125 129 133 137 141 147 152 160 159 158 156 144 131 110 129 190 227 165 142 158 127 96 78 94 107 89 90 87 73 130 114 104 37 73 100 146 159 165 195 236 254 302 294 313 315 300 309
137 136 140 138 144 147 158 160 161 161 157 145 150 151 169 177 212 121 145 166 135 139 104 118 87 127 135 119 98 97 71 357 335 87 90 96 210 195 232 256 272 267 289 311 309 345 349
138 138 141 143 149 155 160 162 164 162 162 161 120 148 155 101 137 132 174 159 134 105 133 123 115 114 109 114 132 147 122 184 239 12 94 252 257 236 269 253 253 258 315 307 302 333 338
147 145 140 148 154 166 171 166 164 163 160 123 143 120 125 123 127 120 203 139 131 105 30 160 138 110 111 153 154 194 218 203 224 175 160 201 206 66 271 297 304 150 307 331 309 1 344
146 145 153 152 150 149 158 162 161 163 163 150 135 131 117 90 124 162 147 106 123 112 124 102 119 100 133 109 33 290 247 240 232 236 195 193 166 176 266 296 333 212 214 349 323 330 7
155 152 156 152 157 162 156 157 156 149 153 154 149 137 125 122 93 61 105 112 99 104 105 123 103 121 129 88 69 20 351 74 213 191 192 199 137 234 236 258 223 309 80 347 331 304 9
163 157 156 152 152 158 161 158 159 149 148 158 151 118 110 114 8 123 108 134 122 123 82 94 110 138 120 79 82 103 195 195 206 102 162 150 146 167 281 251 242 224 318 332 289 243 359
163 155 153 153 151 152 154 162 167 149 146 153 132 129 126 98 51 97 102 134 133 111 101 87 123 102 126 87 93 164 231 245 171 136 318 45 13 169 280 251 285 322 318 322 181 290 336
172 166 159 158 152 154 153 160 166 158 150 154 128 126 132 103 85 92 107 123 130 133 132 160 94 24 58 79 137 210 171 282 55 310 176 161 141 223 284 307 281 1 360 62 309 322 324
171 167 164 163 156 153 152 146 151 166 161 154 134 136 116 103 118 106 107 107 121 132 127 112 112 106 137 99 155 104 177 29 162 243 353 264 181 199 185 226 186 87 105 307 309 312 326
Wind_Speed_850mb
69 68 61 57 53 45 43 41 40 39 39 38 36 30 30 28 27 27 26 23 21 26 28 29 31 28 19 8 8 10 11 18 20 14 11 12 14 7 4 9 18 9 9 33 32 48 46
80 78 71 66 63 55 47 48 45 44 42 40 39 33 33 34 27 29 29 27 24 24 29 29 30 26 14 4 14 9 13 13 5 7 8 8 6 7 8 6 1 18 29 43 41 51 38
88 87 82 73 71 62 54 53 50 48 46 43 42 37 36 33 35 29 30 29 26 25 26 28 29 23 15 14 13 12 21 9 9 16 19 5 8 4 7 10 10 21 14 13 7 15 14
96 90 90 87 82 67 63 62 55 52 49 47 44 41 39 35 36 33 28 29 25 22 22 22 22 16 7 5 5 3 5 5 9 11 10 7 7 5 1 11 18 13 8 12 16 23 17
103 101 95 91 94 81 70 63 62 59 53 51 49 42 41 36 36 35 32 28 29 28 22 22 18 9 7 9 7 3 7 18 19 8 13 2 6 3 8 6 10 13 11 29 20 33 17
111 107 100 96 100 95 82 79 73 67 61 58 55 49 38 35 30 36 35 30 29 21 23 16 19 10 9 8 7 4 10 12 16 5 5 13 8 7 8 11 4 12 14 12 29 15 19
115 128 114 105 102 105 101 88 84 78 68 63 59 49 42 35 31 38 35 23 12 6 23 14 7 7 5 5 6 7 13 3 14 18 6 9 13 5 4 3 6 10 12 29 36 22 31
100 127 128 121 103 109 108 99 96 85 75 69 65 57 56 55 39 39 27 11 10 6 9 32 24 25 16 7 7 6 7 7 8 6 6 11 8 5 5 9 8 11 24 33 43 17 28
88 105 140 131 119 117 119 111 104 93 83 73 71 65 57 46 37 29 14 9 8 10 0 10 27 15 15 13 6 8 5 8 6 3 3 9 6 4 10 10 14 8 14 25 26 52 49
110 105 130 151 135 136 121 120 108 100 90 79 69 61 59 42 35 32 18 10 2 6 6 7 12 13 17 14 3 6 6 6 3 3 6 7 2 11 8 4 14 20 12 22 38 33 26
126 131 128 158 152 146 128 127 117 107 93 74 65 62 56 49 28 37 22 14 11 10 5 14 11 18 18 12 21 9 6 6 5 2 9 1 8 12 2 3 26 18 19 26 45 39 32
141 147 134 159 153 151 134 131 120 108 86 68 70 69 55 52 35 36 26 22 23 5 12 12 13 14 11 10 9 10 8 14 9 8 7 8 10 5 4 8 8 16 23 45 17 2 8
135 133 136 155 152 152 143 134 122 102 77 76 71 61 59 53 48 39 31 34 8 10 8 11 10 10 10 10 8 5 5 7 5 7 8 8 5 8 6 20 6 17 24 10 10 6 19
96 111 138 156 156 149 140 129 101 80 78 80 72 65 56 49 47 40 45 7 10 17 14 5 7 11 8 10 6 5 6 4 4 9 3 5 10 6 11 1 9 9 6 4 13 17 37
68 127 141 155 162 149 130 109 92 84 86 65 68 61 57 48 46 44 29 4 13 6 10 14 9 7 4 6 10 7 4 8 5 6 7 4 6 4 8 5 7 6 2 16 14 27 17
84 121 141 148 145 130 115 100 93 94 85 79 65 58 51 44 42 46 6 9 4 3 7 7 10 10 8 8 6 6 4 6 2 5 9 2 6 2 8 5 8 7 9 11 8 11 18
93 134 137 132 125 110 96 96 81 85 79 77 67 27 45 38 44 26 8 10 9 5 10 6 6 8 8 10 9 5 9 3 4 7 5 6 6 9 9 5 12 8 6 7 9 9 9
83 93 111 105 93 85 81 75 81 83 82 77 40 7 48 45 11 9 7 10 17 8 7 6 6 9 9 9 8 7 9 6 6 5 5 3 6 3 14 19 9 7 13 17 8 15 21
63 64 64 72 71 71 72 74 85 86 90 54 20 17 30 43 8 5 7 7 9 9 7 6 5 5 6 9 9 7 9 15 17 6 7 4 2 6 8 12 9 6 24 24 28 17 16
53 54 56 62 62 64 73 71 78 82 70 42 19 7 11 17 4 11 10 8 9 11 6 13 10 12 9 6 6 7 5 5 6 6 16 9 6 13 11 18 9 11 31 31 22 6 21
44 46 50 52 58 54 56 71 76 80 59 33 12 8 17 8 7 6 6 11 20 9 5 10 6 9 10 6 6 6 6 10 6 5 7 6 6 11 13 24 28 29 29 22 20 14 9
43 41 52 54 59 51 48 58 67 74 54 13 15 14 13 11 29 11 2 5 12 9 7 6 11 13 12 9 6 6 8 4 8 5 6 1 6 2 8 21 23 18 9 20 13 11 25
46 47 48 48 42 40 44 53 64 58 30 9 20 41 32 4 8 9 7 9 11 15 20 19 28 13 13 13 15 12 20 21 17 12 8 5 5 2 8 11 20 8 7 17 18 15 18
43 46 46 42 40 39 44 52 59 45 26 37 44 42 12 3 6 7 11 14 18 9 13 13 25 10 13 11 2 6 14 29 27 23 25 10 7 5 7 9 4 6 4 13 24 5 24
57 51 52 48 42 38 36 51 54 33 32 40 47 23 13 6 10 9 22 19 31 35 13 14 9 17 17 10 7 7 7 4 4 9 16 19 7 3 4 4 4 4 2 11 11 6 26
56 55 56 45 44 39 42 49 57 41 37 37 33 26 31 18 5 3 10 23 10 8 4 8 15 25 13 7 6 4 4 3 4 3 7 9 2 5 2 4 7 7 18 30 13 11 33
46 47 51 46 42 44 43 46 56 41 34 32 32 30 24 19 10 7 8 10 14 9 8 8 10 7 10 4 4 4 6 4 4 2 2 4 3 2 3 7 9 5 35 32 6 10 41
54 49 51 43 43 45 42 40 48 45 34 26 30 27 25 15 16 18 16 17 18 17 9 10 9 5 6 6 5 5 3 1 2 2 3 5 1 2 3 2 9 16 7 7 11 25 30
56 59 54 50 47 43 40 37 39 44 31 26 26 21 27 17 19 20 20 21 21 19 29 8 8 7 7 7 2 4 2 3 6 4 7 3 9 6 10 8 2 4 1 12 17 20 24
Wind_Direction_850mb
260 258 259 260 259 257 264 264 268 266 265 267 271 266 262 260 267 272 275 282 292 300 305 308 305 307 309 268 256 270 313 324 315 305 335 12 42 20 348 303 328 207 324 321 312 310 305
256 260 255 256 257 255 258 265 262 262 259 262 262 257 259 263 253 264 271 280 289 293 299 302 300 298 292 256 229 282 325 333 342 343 311 344 341 343 284 284 18 317 302 298 303 298 299
257 256 257 254 255 255 253 259 258 258 256 255 257 257 254 256 260 255 266 278 286 293 298 302 306 297 269 252 261 293 301 308 7 347 320 89 347 336 318 326 322 281 317 349 309 8 307
256 255 252 254 249 247 253 252 252 255 254 252 250 249 245 250 254 258 258 270 279 286 298 303 306 306 257 227 261 291 15 251 324 358 323 310 279 336 349 322 339 347 28 6 345 340 10
255 252 253 251 249 246 244 249 252 252 249 247 249 243 247 242 248 255 256 258 271 279 289 292 287 301 276 177 181 3 23 359 344 358 44 63 169 70 43 41 5 13 321 322 330 345 348
255 253 247 248 248 248 242 246 245 246 243 240 239 239 236 239 250 257 255 262 269 270 259 272 242 289 228 217 232 76 31 14 50 107 120 53 62 65 34 51 323 298 306 282 296 305 312
254 255 251 244 248 242 241 240 246 244 244 236 233 230 226 228 251 258 265 274 248 258 227 211 238 245 222 239 219 97 32 209 55 56 56 14 67 61 321 7 235 267 284 300 294 301 298
247 248 251 248 244 247 240 239 242 240 240 237 224 225 225 230 240 252 255 226 196 212 302 230 236 250 244 205 181 181 47 98 67 72 29 23 125 60 96 24 9 325 301 299 289 317 310
256 248 246 244 251 243 241 239 236 237 235 232 222 230 230 217 235 234 235 215 225 229 248 256 212 211 196 194 200 176 95 134 124 95 81 145 70 24 51 331 317 301 275 299 294 312 300
266 262 241 242 244 240 240 236 235 232 231 221 230 225 202 216 220 213 199 173 192 144 41 223 203 222 189 192 241 178 158 116 98 161 131 114 11 16 359 311 348 328 268 303 301 309 299
263 266 249 235 235 234 234 232 230 225 222 222 218 200 198 204 202 189 182 167 133 131 268 147 169 166 170 174 139 116 99 115 116 147 90 307 328 314 32 34 347 274 309 302 297 279 297
260 261 238 224 225 224 225 229 222 216 212 213 200 189 196 194 192 184 168 153 127 89 238 192 152 177 148 180 169 115 76 72 95 93 40 199 278 159 189 328 298 307 341 314 298 225 251
260 243 218 214 222 216 211 211 210 205 201 194 191 191 192 191 192 177 164 132 99 207 135 169 181 162 145 153 123 90 80 41 89 48 20 341 333 340 34 346 335 21 349 319 327 318 283
241 217 205 206 205 199 193 198 197 197 184 184 187 187 188 188 181 170 152 89 205 194 183 122 119 114 161 144 69 106 104 105 92 94 94 52 350 354 336 287 280 340 91 321 301 303 297
215 199 201 197 190 186 188 187 183 182 174 184 184 178 182 179 172 167 147 132 198 234 137 142 95 123 153 54 116 104 89 164 184 126 120 34 275 266 327 327 108 276 321 275 264 260 267
209 194 180 174 174 177 179 176 177 175 173 174 175 170 170 174 175 166 114 235 142 212 118 116 152 152 139 142 83 82 153 243 98 106 130 129 310 258 300 346 56 145 287 320 269 300 302
151 164 159 159 161 162 166 167 164 168 172 163 165 143 162 166 163 167 176 218 124 63 130 122 140 109 129 131 122 155 194 48 113 144 147 123 128 301 6 351 306 346 344 293 268 238 286
109 119 134 144 148 149 154 158 161 164 160 155 149 111 160 156 135 192 149 201 117 164 115 116 100 111 135 135 126 143 167 140 113 129 100 189 161 298 295 286 255 177 323 302 286 281 258
130 129 129 128 134 143 152 155 164 162 160 144 104 108 156 164 152 164 242 119 128 161 160 138 114 85 106 141 110 134 145 116 98 104 128 161 326 340 342 3 356 323 306 308 302 267 301
125 129 133 137 141 147 152 160 159 158 156 144 131 110 129 190 227 165 142 158 127 96 78 94 107 89 90 87 73 130 114 104 37 73 100 146 159 165 195 236 254 302 294 313 315 300 309
137 136 140 138 144 147 158 160 161 161 157 145 150 151 169 177 212 121 145 166 135 139 104 118 87 127 135 119 98 97 71 357 335 87 90 96 210 195 232 256 272 267 289 311 309 345 349
138 138 141 143 149 155 160 162 164 162 162 161 120 148 155 101 137 132 174 159 134 105 133 123 115 114 109 114 132 147 122 184 239 12 94 252 257 236 269 253 253 258 315 307 302 333 338
147 145 140 148 154 166 171 166 164 163 160 123 143 120 125 123 127 120 203 139 131 105 30 160 138 110 111 153 154 194 218 203 224 175 160 201 206 66 271 297 304 150 307 331 309 1 344
146 145 153 152 150 149 158 162 161 163 163 150 135 131 117 90 124 162 147 106 123 112 124 102 119 100 133 109 33 290 247 240 232 236 195 193 166 176 266 296 333 212 214 349 323 330 7
155 152 156 152 157 162 156 157 156 149 153 154 149 137 125 122 93 61 105 112 99 104 105 123 103 121 129 88 69 20 351 74 213 191 192 199 137 234 236 258 223 309 80 347 331 304 9
163 157 156 152 152 158 161 158 159 149 148 158 151 118 110 114 8 123 108 134 122 123 82 94 110 138 120 79 82 103 195 195 206 102 162 150 146 167 281 251 242 224 318 332 289 243 359
163 155 153 153 151 152 154 162 167 149 146 153 132 129 126 98 51 97 102 134 133 111 101 87 123 102 126 87 93 164 231 245 171 136 318 45 13 169 280 251 285 322 318 322 181 290 336
172 166 159 158 152 154 153 160 166 158 150 154 128 126 132 103 85 92 107 123 130 133 132 160 94 24 58 79 137 210 171 282 55 310 176 161 141 223 284 307 281 1 360 62 309 322 324
171 167 164 163 156 153 152 146 151 166 161 154 134 136 116 103 118 106 107 107 121 132 127 112 112 106 137 99 155 104 177 29 162 243 353 264 181 199 185 226 186 87 105 307 309 312 326